User: anonymous   Login
Location: Vancouver
(49.2500°N, 123.1330°W)
Time: 11:50:31
(UTC-07:00)
Language:

YAOGAN 6 - Orbit

View from above orbital plane
View from above orbital plane
View from above satellite
View from above satellite

Ground track
Ground track

The orbit data is extracted from the following two-line orbital elements,

1 34839U 09021A   15186.10958831  .00001688  00000-0  73297-4 0  9990
2 34839 097.2421 253.6042 0029232 327.4049 117.4250 15.23306865343934
Epoch (UTC): 05 July 2015 02:37:48
Eccentricity: 0.0029232
inclination: 97.2421°
perigee height: 476 km
apogee height: 516 km
right ascension of ascending node: 253.6042°
argument of perigee: 327.4049°
revolutions per day: 15.23306865
mean anomaly at epoch: 117.4250°
orbit number at epoch: 34393

The dashed part of the orbit path shows where the satellite is in the earth's shadow,  

DLR